FW7658 Weather Reports


Display with metric or nautical units.
time (UTC)temp
F
wind
direction
speed
MPH
gust
MPH
rain 1hr
in
rain 24hr
in
rain mn
in
humidity
%
barometer
mb
20260505173056 79 212 2.0 7.0 0.00 0.00 0.00 50 1016.8
20260505171557 78 195 2.0 9.0 0.00 0.00 0.00 51 1017.1
20260505170057 79 267 2.0 10.0 0.00 0.00 0.00 53 1017.2
20260505164600 79 0 1.0 8.0 0.00 0.00 0.00 53 1017.3
20260505163054 78 215 3.0 10.0 0.00 0.00 0.00 55 1017.6
20260505161554 78 140 4.0 10.0 0.00 0.00 0.00 54 1017.6
20260505153052 77 240 2.0 6.0 0.00 0.00 0.00 60 1017.9
20260505151556 76 149 2.0 8.0 0.00 0.00 0.00 61 1017.8
20260505150105 76 197 1.0 7.0 0.00 0.00 0.00 62 1017.8
20260505130110 68 163 1.0 3.0 0.00 0.00 0.00 76 1017.6
20260505124556 65 0 0.0 0.0 0.00 0.00 0.00 83 1017.6
20260505123102 63 0 0.0 0.0 0.00 0.00 0.00 89 1017.7
20260505121556 59 0 0.0 0.0 0.00 0.00 0.00 94 1017.6
20260505120104 57 0 0.0 0.0 0.00 0.00 0.00 95 1017.5
20260505114556 55 0 0.0 0.0 0.00 0.00 0.00 95 1017.4
20260505113112 54 0 0.0 0.0 0.00 0.00 0.00 95 1017.2
20260505111556 53 0 0.0 0.0 0.00 0.00 0.00 94 1017.2
20260505110116 52 0 0.0 0.0 0.00 0.00 0.00 94 1017.1
20260505101600 52 0 0.0 0.0 0.00 0.00 0.00 94 1016.5
20260505100053 53 0 0.0 0.0 0.00 0.00 0.00 94 1016.4
20260505094618 53 0 0.0 0.0 0.00 0.00 0.00 93 1016.4
20260505093058 53 0 0.0 0.0 0.00 0.00 0.00 93 1016.3
20260505091605 53 0 0.0 0.0 0.00 0.00 0.00 93 1016.2
20260505090105 53 0 0.0 0.0 0.00 0.00 0.00 93 1016.2
20260505084559 53 0 0.0 0.0 0.00 0.00 0.00 92 1016.1
20260505083105 53 0 0.0 0.0 0.00 0.00 0.00 92 1015.9
20260505081600 54 0 0.0 0.0 0.00 0.00 0.00 92 1015.8
20260505080053 54 0 0.0 0.0 0.00 0.00 0.00 91 1015.8
20260505074552 54 0 0.0 0.0 0.00 0.00 0.00 91 1015.7
20260505073058 54 0 0.0 0.0 0.00 0.00 0.00 91 1015.7
20260505071552 54 0 0.0 0.0 0.00 0.00 0.00 91 1015.7
20260505070051 54 0 0.0 0.0 0.00 0.00 0.00 90 1015.8
20260505064554 55 0 0.0 0.0 0.00 0.00 0.00 90 1015.8
20260505063052 55 0 0.0 0.0 0.00 0.00 0.00 89 1015.9
20260505061557 55 0 0.0 0.0 0.00 0.00 0.00 89 1016.1
20260505060105 55 0 0.0 0.0 0.00 0.00 0.00 88 1016.4
20260505054557 56 0 0.0 0.0 0.00 0.00 0.00 87 1016.5
20260505053057 56 0 0.0 0.0 0.00 0.00 0.00 87 1016.6
20260505051556 56 0 0.0 0.0 0.00 0.00 0.00 86 1016.9
20260505041557 58 0 0.0 0.0 0.00 0.00 0.00 82 1016.9
20260505040103 59 0 0.0 0.0 0.00 0.00 0.00 80 1016.8
20260505034559 59 0 0.0 0.0 0.00 0.00 0.00 79 1017.0
20260505033057 60 0 0.0 0.0 0.00 0.00 0.00 77 1016.8
20260505031601 61 0 0.0 0.0 0.00 0.00 0.00 74 1017.0
20260505030100 62 0 0.0 0.0 0.00 0.00 0.00 72 1016.9
20260505024556 62 0 0.0 0.0 0.00 0.00 0.00 71 1017.0
20260505023056 63 0 0.0 1.0 0.00 0.00 0.00 69 1017.0
20260505021556 63 0 0.0 0.0 0.00 0.00 0.00 68 1016.9
20260505020053 64 0 0.0 4.0 0.00 0.00 0.00 66 1016.9
20260505014605 64 203 0.0 2.0 0.00 0.00 0.00 65 1016.8
20260505013052 64 0 0.0 2.0 0.00 0.00 0.00 64 1016.8
20260505011554 65 0 0.0 3.0 0.00 0.00 0.00 62 1016.6
20260505010052 65 0 0.0 0.0 0.00 0.00 0.00 61 1016.4
20260505004557 66 0 0.0 0.0 0.00 0.00 0.00 59 1016.5
20260505003054 67 172 0.0 3.0 0.00 0.00 0.00 57 1016.3
20260505001554 68 0 0.0 4.0 0.00 0.00 0.00 55 1016.3
20260505000057 69 0 1.0 8.0 0.00 0.00 0.00 54 1016.4
20260504234552 69 0 1.0 8.0 0.00 0.00 0.00 53 1016.3
20260504233055 70 145 1.0 11.0 0.00 0.00 0.00 52 1016.2
20260504231556 71 203 4.0 10.0 0.00 0.00 0.00 51 1016.1
20260504230055 72 198 2.0 9.0 0.00 0.00 0.00 51 1016.1
20260504224554 72 134 4.0 12.0 0.00 0.00 0.00 51 1015.9
20260504223054 73 159 3.0 12.0 0.00 0.00 0.00 51 1016.0
20260504221555 74 181 2.0 13.0 0.00 0.00 0.00 50 1016.0
20260504220056 74 163 3.0 16.0 0.00 0.00 0.00 49 1015.9
20260504214603 74 149 4.0 11.0 0.00 0.00 0.00 48 1015.8
20260504213056 75 276 4.0 10.0 0.00 0.00 0.00 47 1015.8
20260504211556 77 188 4.0 10.0 0.00 0.00 0.00 46 1015.7
20260504210105 77 212 4.0 13.0 0.00 0.00 0.00 46 1015.6
20260504204620 78 226 6.0 13.0 0.00 0.00 0.00 43 1015.5
20260504203131 79 224 3.0 13.0 0.00 0.00 0.00 45 1015.5
20260504201600 78 170 5.0 13.0 0.00 0.00 0.00 43 1015.5
20260504200057 78 222 4.0 11.0 0.00 0.00 0.00 42 1015.6
20260504194559 79 0 3.0 9.0 0.00 0.00 0.00 38 1016.0
20260504193058 81 73 2.0 9.0 0.00 0.00 0.00 39 1016.2
20260504191604 79 147 2.0 7.0 0.00 0.00 0.00 40 1016.2
20260504190058 79 209 1.0 4.0 0.00 0.00 0.00 39 1016.5
20260504184556 78 138 2.0 6.0 0.00 0.00 0.00 38 1016.6
20260504183103 78 183 3.0 9.0 0.00 0.00 0.00 40 1016.8
20260504181605 78 138 2.0 8.0 0.00 0.00 0.00 39 1016.8
20260504180108 77 149 1.0 8.0 0.00 0.00 0.00 42 1017.0
20260504174551 77 257 2.0 9.0 0.00 0.00 0.00 39 1017.0